Location: Lourdes
(43.1000°N, 0.0500°W)
Time: 07:53:20
(UTC+00:00)

Cosmos 2239 Rocket - Pass Details

Date: 30 November 2020
Orbit: 955 x 990 km, 82.9° (Epoch: 25 January)

Event Time Altitude Azimuth Distance (km) Brightness Sun altitude
Rises 18:11:52 0° 356° (N) 3,648 7.4 -18.7°
Reaches altitude 10° 18:14:26 10° 1° (N) 2,701 6.7 -19.2°
Maximum altitude 18:20:29 55° 78° (ENE) 1,152 4.5 -20.3°
Drops below altitude 10° 18:26:32 10° 156° (SSE) 2,703 6.7 -21.3°
Sets 18:29:06 0° 160° (SSE) 3,652 7.4 -21.8°
